Simultaneous Nadir Overpasses (SNOs) Predictions

Prediction of SNOs between METOP-B and NOAA-19 Satellite Orbit:

Table of predicted SNOs for the next 14.0 days since TLE Epoch: 7/10/2015
Index Date (METOP-B) Time (METOP-B) Lat,Lon (METOP-B) SZA (METOP-B ) Date (NOAA-19) Time (NOAA-19) Lat,Lon (NOAA-19) SZA (NOAA-19 ) Distance(km) Time Diff (sec)
1 07/13/2015 04:32:34 75.04, 109.57 53.13 07/13/2015 04:31:23 75.03, 109.47 53.12 3.07 71
2 07/13/2015 05:23:16 -75.03, -83.16 126.89 07/13/2015 05:22:21 -75.00, -83.18 126.91 3.12 55
3 07/13/2015 06:13:57 74.98, 84.03 53.07 07/13/2015 06:13:25 75.00, 84.04 53.10 3.17 32
4 07/13/2015 07:04:39 -74.96,-108.69 126.94 07/13/2015 07:04:23 -74.97,-108.60 126.93 2.86 16
5 07/13/2015 07:55:19 74.96, 58.63 53.06 07/13/2015 07:55:27 74.98, 58.62 53.08 2.34 8
6 07/13/2015 08:46:01 -74.94,-134.09 126.95 07/13/2015 08:46:25 -74.94,-134.03 126.95 1.78 24
7 07/13/2015 09:36:41 74.94, 33.24 53.05 07/13/2015 09:37:29 74.95, 33.19 53.06 1.95 48
8 07/13/2015 10:27:23 -74.92,-159.48 126.96 07/13/2015 10:28:27 -74.91,-159.45 126.97 1.09 64
9 07/13/2015 11:18:14 74.38, 6.40 52.55 07/13/2015 11:19:20 74.40, 9.25 52.50 85.23 66
10 07/23/2015 16:14:58 75.31, -65.30 55.21 07/23/2015 16:13:47 75.32, -66.81 55.26 42.45 71
11 07/23/2015 17:05:45 -75.07, 101.33 125.01 07/23/2015 17:04:43 -75.05, 101.26 125.02 2.86 62
12 07/23/2015 17:56:25 75.05, -91.40 54.98 07/23/2015 17:55:44 75.06, -91.51 55.00 3.38 41
13 07/23/2015 18:47:08 -75.00, 75.79 125.06 07/23/2015 18:46:45 -75.02, 75.83 125.04 2.71 23
14 07/23/2015 19:37:48 74.98,-116.93 54.93 07/23/2015 19:37:45 74.98,-116.80 54.93 3.96 3
15 07/23/2015 20:28:30 -74.98, 50.40 125.07 07/23/2015 20:28:47 -74.99, 50.41 125.05 1.68 17
16 07/23/2015 21:19:10 74.96,-142.33 54.92 07/23/2015 21:19:47 74.95,-142.23 54.92 3.10 37
17 07/23/2015 22:09:52 -74.96, 25.00 125.07 07/23/2015 22:10:49 -74.97, 24.98 125.07 0.98 57
18 07/23/2015 23:00:35 74.79,-168.13 54.78 07/23/2015 23:01:47 74.83,-167.38 54.80 22.51 72




NCC Satellite Simultaneous Nadir Overpasses (SNOs) Prediction Service
